STARLINK-2409, 47824

Orbit data source: Space-Track

STARLINK-2409, 47824 is a payload satellite owned by SpaceX/Seattle (US) in LEO that was launched on Thu, 11 Mar 2021 UTC via an FALCON 9 launch vehicle from the Air Force Eastern Test Range (AFETR). Payload-class satellites include a variety of spacecraft equipped with specific instruments for various scientific and technological missions. These include communications satellites like Starlink; space stations such as the ISS; scientific satellites like the Hubble; Earth observation satellites from companies like Planet Labs, Umbra, and HawkEye 360; GPS; miniature CubeSats for education and research; and military/defense satellites.

Loading next visibility...
Identifier
47824, 2021-018AP
Orbit
LEO
Country
Flag of USUS
Related business
Manufacturer
SpaceX/Seattle
Mission
Operational Commercial Communications
Bus & Motor
STARLINK, Unknown motor
Mass
260 kg wet, ~248 kg dry
Launch date (UTC)
2021-03-11 (5 years ago)
Launch vehicle
FALCON 9
Launch site
Air Force Eastern Test Range (AFETR)
Object type
Payload
Rocket body
Debris
Shape & HBR
Box + 1 Pan, 10.1 m
Radar Cross Section
13.562 m², Large (>1 m²)

Expand to show TLE details & history
Last TLE update: 11 hours ago

TLE from 11 hours ago
0 STARLINK-2409
1 47824U 21018AP  26035.41677009  .00000803  00000-0  72766-4 0  9990
2 47824  53.0552  40.9870 0001355 101.0265 259.0877 15.06398426271578
Epoch: 2026-02-04T10:00Z
TLE epoch observation values (Epoch: 2026-02-04T10:00:08.935Z)
Latitude
0.00001°
Longitude
116.36612°
Altitude
548.273 km
Speed
7.589 km/s
True Right ascension
02h 43m 56s
True Declination
0° 00' 00"
Sunlit
Object was in daylight at epoch
Visualization orbit readout
Latitude
Unknown
Longitude
Unknown
Altitude
Unknown
Speed
Unknown
Apparent Right ascension
Unknown
Apparent Declination
Unknown
Sunlit
N/A
Visualization observer readout
Local Sidereal Time
23:27:59
Azimuth
Unknown
Elevation
Unknown
Doppler factor
Unknown
Orbital elements
Apogee altitude
548.425 km
Perigee altitude
546.549 km
Semi-major axis
6,925.624 km
Eccentricity
0.00014
Inclination
53.0552°
RAAN
40.987°
Arg. of periapsis
101.0265°
True anomaly
259.07245°
Mean anomaly
259.0877°
Eccentric anomaly
259.08008°
Mean motion
3.76578 °/min
Orbital period
95.6 mins
BSTAR
0.000072766
Loading maneuver chart data...
Computing Atmospheric mass density...
Loading historical data...
Loading historical data...
Loading historical data...
Loading historical data...
Loading historical data...
Loading historical data...
Loading historical data...

Documentation

Showing up to 5 results
|